TimeEEST,TemperatureF,Dew PointF,Humidity,Sea Level PressureIn,VisibilityMPH,Wind Direction,Wind SpeedMPH,Gust SpeedMPH,PrecipitationIn,Events,Conditions,WindDirDegrees,DateUTC
12:20 AM,77.0,64.4,65,29.83,-9999.0,West,6.9,-,N/A,,Clear,270,2013-08-19 21:20:00
12:50 AM,77.0,66.2,69,29.83,-9999.0,West,6.9,-,N/A,,Clear,270,2013-08-19 21:50:00
1:20 AM,77.0,64.4,65,29.83,-9999.0,West,6.9,-,N/A,,Clear,270,2013-08-19 22:20:00
1:50 AM,75.2,64.4,69,29.83,-9999.0,West,6.9,-,N/A,,Clear,280,2013-08-19 22:50:00
2:20 AM,75.2,64.4,69,29.80,-9999.0,West,5.8,-,N/A,,Clear,260,2013-08-19 23:20:00
2:50 AM,75.2,66.2,73,29.80,-9999.0,West,6.9,-,N/A,,Clear,270,2013-08-19 23:50:00
3:20 AM,75.2,66.2,73,29.80,-9999.0,West,9.2,-,N/A,,Clear,270,2013-08-20 00:20:00
3:50 AM,75.2,66.2,73,29.80,-9999.0,West,9.2,-,N/A,,Clear,270,2013-08-20 00:50:00
4:20 AM,75.2,66.2,73,29.80,-9999.0,West,9.2,-,N/A,,Clear,270,2013-08-20 01:20:00
4:50 AM,75.2,66.2,73,29.80,-9999.0,West,9.2,-,N/A,,Clear,260,2013-08-20 01:50:00
5:20 AM,75.2,66.2,73,29.80,-9999.0,West,9.2,-,N/A,,Clear,270,2013-08-20 02:20:00
5:50 AM,75.2,66.2,73,29.80,-9999.0,West,6.9,-,N/A,,Clear,280,2013-08-20 02:50:00
6:20 AM,75.2,66.2,73,29.80,-9999.0,West,6.9,-,N/A,,Clear,280,2013-08-20 03:20:00
6:50 AM,73.4,62.6,69,29.80,-9999.0,West,4.6,-,N/A,,Clear,280,2013-08-20 03:50:00
7:20 AM,75.2,62.6,65,29.80,-9999.0,WNW,4.6,-,N/A,,Clear,300,2013-08-20 04:20:00
7:50 AM,77.0,64.4,65,29.80,-9999.0,NW,3.5,-,N/A,,Clear,320,2013-08-20 04:50:00
8:20 AM,77.0,64.4,65,29.80,-9999.0,NW,3.5,-,N/A,,Clear,320,2013-08-20 05:20:00
8:50 AM,82.4,62.6,51,29.83,-9999.0,North,11.5,-,N/A,,Clear,350,2013-08-20 05:50:00
9:20 AM,82.4,62.6,51,29.83,-9999.0,North,11.5,-,N/A,,Clear,350,2013-08-20 06:20:00
9:50 AM,82.4,60.8,48,29.83,-9999.0,NNW,11.5,-,N/A,,Clear,330,2013-08-20 06:50:00
10:20 AM,82.4,60.8,48,29.83,-9999.0,NNW,11.5,-,N/A,,Clear,330,2013-08-20 07:20:00
10:50 AM,84.2,60.8,45,29.83,-9999.0,NNW,15.0,-,N/A,,Clear,330,2013-08-20 07:50:00
11:20 AM,84.2,60.8,45,29.83,-9999.0,NNW,15.0,-,N/A,,Clear,330,2013-08-20 08:20:00
11:50 AM,84.2,62.6,48,29.83,-9999.0,NNW,13.8,-,N/A,,Clear,340,2013-08-20 08:50:00
12:20 PM,84.2,62.6,48,29.83,-9999.0,NNW,13.8,-,N/A,,Clear,340,2013-08-20 09:20:00
12:50 PM,86.0,60.8,43,29.83,-9999.0,North,15.0,-,N/A,,Clear,360,2013-08-20 09:50:00
1:20 PM,86.0,60.8,43,29.83,-9999.0,North,15.0,-,N/A,,Clear,360,2013-08-20 10:20:00
1:50 PM,86.0,60.8,43,29.83,-9999.0,North,17.3,-,N/A,,Clear,350,2013-08-20 10:50:00
2:20 PM,86.0,60.8,43,29.83,-9999.0,North,17.3,-,N/A,,Clear,350,2013-08-20 11:20:00
2:50 PM,84.2,68.0,58,29.83,-9999.0,NNE,9.2,-,N/A,,Clear,20,2013-08-20 11:50:00
3:20 PM,84.2,64.4,51,29.83,-9999.0,North,11.5,-,N/A,,Clear,350,2013-08-20 12:20:00
3:50 PM,84.2,64.4,51,29.80,-9999.0,NNW,10.4,-,N/A,,Clear,330,2013-08-20 12:50:00
4:20 PM,84.2,62.6,48,29.80,-9999.0,NW,11.5,-,N/A,,Clear,320,2013-08-20 13:20:00
4:50 PM,84.2,64.4,51,29.80,-9999.0,NNW,13.8,-,N/A,,Clear,340,2013-08-20 13:50:00
5:20 PM,82.4,68.0,62,29.80,-9999.0,North,8.1,-,N/A,,Clear,10,2013-08-20 14:20:00
5:50 PM,82.4,68.0,62,29.80,-9999.0,North,8.1,-,N/A,,Clear,10,2013-08-20 14:50:00
6:20 PM,80.6,68.0,65,29.80,-9999.0,NNE,10.4,-,N/A,,Clear,20,2013-08-20 15:20:00
6:50 PM,78.8,68.0,69,29.80,-9999.0,North,8.1,-,N/A,,Clear,10,2013-08-20 15:50:00
7:20 PM,78.8,68.0,69,29.80,-9999.0,North,6.9,-,N/A,,Clear,360,2013-08-20 16:20:00
7:50 PM,78.8,68.0,69,29.80,-9999.0,NNW,6.9,-,N/A,,Clear,330,2013-08-20 16:50:00
8:20 PM,77.0,68.0,74,29.80,-9999.0,WNW,6.9,-,N/A,,Clear,290,2013-08-20 17:20:00
8:50 PM,77.0,68.0,74,29.80,-9999.0,West,6.9,-,N/A,,Clear,270,2013-08-20 17:50:00
9:20 PM,77.0,64.4,65,29.83,-9999.0,West,5.8,-,N/A,,Clear,280,2013-08-20 18:20:00
9:50 PM,77.0,66.2,69,29.83,-9999.0,West,5.8,-,N/A,,Clear,280,2013-08-20 18:50:00
10:20 PM,75.2,64.4,69,29.83,-9999.0,WNW,5.8,-,N/A,,Clear,290,2013-08-20 19:20:00
10:50 PM,77.0,62.6,61,29.80,-9999.0,West,6.9,-,N/A,,Clear,280,2013-08-20 19:50:00
11:20 PM,77.0,60.8,57,29.80,-9999.0,West,5.8,-,N/A,,Clear,280,2013-08-20 20:20:00
11:50 PM,77.0,60.8,57,29.80,-9999.0,West,5.8,-,N/A,,Clear,280,2013-08-20 20:50:00